SCP
6 6 5 4 5 7 9 9 7 7 7 7 6 5 4 4 4 4 3 2 2 2 2 3 3 3 3 3 4 5 5 5 4 4 3 2 2 1 1 1 1 1 1
6 6 5 4 5 6 8 9 9 8 8 8 7 6 6 5 4 4 3 3 3 3 3 3 3 3 3 3 4 5 5 4 4 3 3 2 2 1 1 1 1 1 1
6 5 4 4 5 6 7 8 10 10 9 8 8 7 7 5 4 4 4 4 4 4 3 3 3 3 3 3 4 4 3 3 3 3 3 3 2 2 2 1 1 1 1
5 4 4 4 5 6 7 8 10 10 9 8 8 7 6 5 5 4 4 4 4 4 4 4 4 4 4 4 3 3 3 3 3 3 3 3 3 3 2 2 1 1 1
5 5 5 5 7 8 8 9 11 10 9 8 7 7 6 6 5 5 5 5 5 5 5 5 5 5 5 4 4 3 3 3 4 4 3 3 3 3 2 2 1 1 1
7 7 6 6 8 10 10 12 12 11 9 8 8 7 7 6 5 5 5 5 5 5 5 5 6 5 5 4 3 3 3 3 4 4 4 3 4 4 3 2 1 1 1
9 9 8 8 10 12 14 15 13 10 8 8 8 9 8 7 5 5 5 5 6 6 6 5 5 5 5 4 3 3 3 3 3 3 3 3 4 6 4 2 1 1 1
10 11 10 9 11 15 18 19 15 10 8 9 11 12 11 9 7 6 6 6 6 6 6 5 4 5 6 4 3 3 3 2 2 2 2 2 3 4 3 2 2 2 1
10 11 10 9 11 16 21 22 17 10 8 9 12 13 13 11 9 7 7 6 6 6 6 6 5 5 5 4 3 3 3 3 3 2 2 2 2 2 2 2 2 2 2
10 11 12 11 12 16 21 22 17 10 7 8 10 11 12 11 10 8 7 7 6 5 5 5 5 5 5 4 4 4 4 4 3 3 3 3 3 3 3 2 3 2 2
12 14 16 16 15 16 19 20 15 10 7 8 9 9 10 10 9 8 8 7 6 5 4 5 5 5 5 5 5 5 4 4 4 4 4 4 4 4 3 3 3 3 2
17 20 22 20 16 16 16 15 12 9 8 9 10 10 9 8 8 8 8 7 6 5 5 5 5 5 5 5 5 5 5 5 5 5 5 5 5 4 4 4 4 3 3
23 25 24 19 16 15 13 11 10 9 9 9 10 10 9 9 8 8 8 8 7 6 6 6 7 7 7 6 6 6 5 6 5 5 5 4 4 4 4 4 4 3 2
25 24 21 16 15 14 12 10 9 9 9 9 9 9 10 10 10 10 10 10 9 7 7 8 9 9 9 8 7 6 6 6 5 5 4 4 3 4 4 4 4 3 3
23 20 16 13 12 13 11 9 8 8 8 8 9 9 10 11 11 12 12 12 11 9 8 8 8 8 8 7 7 6 6 5 4 4 3 3 3 3 4 4 4 3 3
18 15 12 11 11 12 11 10 9 8 8 8 8 9 10 12 13 14 15 15 14 12 11 10 8 7 6 5 5 5 6 5 4 3 3 3 3 3 3 3 2 2 2
12 10 9 10 11 11 10 10 10 9 8 8 7 7 8 10 13 15 17 17 17 16 15 13 11 8 6 4 4 4 5 4 4 3 3 2 2 3 3 2 2 2 2
7 7 7 9 10 9 8 10 11 10 9 8 7 7 7 9 12 15 17 19 20 20 20 18 15 12 8 5 4 4 5 4 3 3 3 3 2 3 3 3 2 2 2
7 7 7 8 9 9 8 10 11 10 9 8 7 7 7 8 9 12 16 18 21 23 22 21 20 16 10 6 3 4 5 4 3 3 3 3 3 2 2 3 3 3 3
7 7 6 7 9 10 11 11 11 11 9 8 7 7 7 7 8 10 12 15 19 22 22 21 21 19 13 6 3 3 5 4 3 3 2 2 2 2 1 2 3 3 3
7 7 6 7 8 11 12 12 12 10 9 8 8 8 8 8 9 9 11 13 16 18 19 19 19 18 13 6 2 2 3 3 3 3 2 2 1 1 1 1 2 2 2
7 7 7 8 9 11 12 13 13 11 11 10 10 10 10 10 12 12 13 14 15 16 16 15 15 15 12 6 2 1 1 2 2 3 2 1 1 0 0 0 1 1 1
7 7 9 10 11 12 12 13 14 13 13 12 11 10 9 10 13 15 15 15 15 14 13 12 11 11 10 6 2 1 0 1 1 2 2 1 0 0 0 0 0 0 1
7 8 9 10 11 11 12 12 12 12 11 11 10 9 8 9 11 13 14 15 14 12 11 10 8 7 7 5 3 2 1 1 1 1 1 1 0 0 0 0 0 0 1
8 8 9 9 9 9 9 8 8 8 8 9 9 8 7 7 8 9 10 11 10 9 8 7 6 5 4 4 3 2 2 1 1 1 1 1 1 1 1 1 1 1 1
8 8 8 8 8 8 7 6 6 7 8 8 9 8 8 7 6 6 6 6 6 5 4 4 4 3 2 2 2 2 1 1 1 1 1 1 1 1 1 1 1 1 1
Wind_Speed
9 9 9 10 10 9 8 7 6 5 3 2 2 2 2 1 2 2 3 3 1 0 0 1 1 0 1 0 1 1 2 2 1 1 1 1 2 2 1 1 1 2 2
10 9 9 9 10 10 9 7 6 5 4 3 3 2 2 2 2 1 2 2 2 0 0 1 1 1 0 0 0 1 1 2 0 0 1 1 1 1 2 2 3 2 1
11 11 10 10 9 10 10 8 7 6 4 3 2 2 2 1 1 1 2 1 1 1 0 1 0 1 1 0 1 1 1 2 1 0 0 0 0 1 1 2 1 1 2
12 12 11 10 9 9 9 8 7 6 4 4 2 3 3 2 2 1 2 1 1 1 1 1 0 1 1 1 2 0 1 1 2 1 0 1 1 1 1 1 1 2 2
12 13 12 10 9 9 9 8 7 6 5 4 3 3 2 1 2 1 2 1 2 2 1 1 0 1 1 1 1 1 1 1 2 2 1 1 1 2 2 2 2 1 1
11 12 11 10 9 8 8 8 7 6 5 4 4 3 3 2 2 1 1 1 1 1 1 0 1 1 1 1 2 2 2 1 2 2 2 1 1 2 1 2 2 2 2
10 11 11 11 9 9 9 8 8 7 6 5 4 3 2 3 2 2 2 2 1 1 0 1 1 1 2 3 2 2 2 2 3 3 2 2 2 1 1 2 2 2 2
9 10 10 10 9 9 9 9 9 7 6 5 4 3 2 2 2 2 1 1 0 0 0 0 0 1 1 3 2 2 2 2 3 4 3 3 2 2 2 1 2 2 2
8 8 9 10 10 9 9 9 9 7 6 6 4 4 3 2 1 1 1 1 1 1 1 0 0 1 1 2 2 2 2 1 3 3 3 2 2 2 2 1 1 2 3
6 7 8 9 9 9 9 8 8 7 6 5 5 4 4 3 2 1 1 1 0 1 1 1 1 1 1 2 2 2 1 2 3 3 2 2 2 2 2 2 2 2 2
8 6 5 7 8 9 8 8 7 7 6 5 4 3 3 3 2 2 1 1 0 0 1 2 2 2 2 2 2 3 2 3 3 3 2 2 2 2 3 2 2 2 2
7 7 6 6 6 7 7 6 6 6 6 4 4 3 3 3 2 2 2 1 1 1 1 2 2 3 2 2 2 3 3 3 3 3 2 3 2 2 2 3 3 2 2
6 6 6 6 5 5 5 5 5 5 5 5 4 3 3 3 2 2 2 2 2 2 2 2 3 3 2 3 3 3 3 3 3 2 2 3 2 3 3 3 3 2 3
6 5 5 6 5 5 5 4 4 4 4 4 4 3 3 2 2 2 2 2 2 3 2 2 3 3 3 3 3 3 4 3 3 3 3 3 3 3 4 3 2 2 3
5 5 5 5 4 4 4 3 3 3 3 3 3 3 2 2 2 1 2 2 2 2 1 2 3 4 3 2 2 3 4 3 3 3 3 3 3 3 3 3 2 2 2
5 5 4 4 3 4 3 2 2 3 3 3 3 2 2 1 1 1 2 2 2 2 2 2 3 3 4 3 2 3 3 3 3 3 3 4 3 2 2 3 3 3 3
4 3 3 2 2 3 3 3 2 3 3 3 2 2 2 2 2 2 2 2 2 2 2 3 3 2 2 2 2 3 3 3 3 3 3 4 3 2 2 3 4 4 6
3 3 2 2 1 2 3 2 3 3 3 3 3 2 2 2 1 2 2 2 2 2 3 3 3 2 2 1 2 4 3 3 3 3 3 3 2 3 3 4 3 3 4
3 2 1 2 2 2 3 3 3 2 2 2 1 1 1 1 2 2 2 2 2 3 3 3 2 2 1 1 1 2 2 2 3 2 3 3 2 3 4 3 3 3 3
4 3 2 2 3 3 2 2 2 2 1 1 1 1 1 2 2 3 3 2 2 3 3 3 3 2 1 2 2 2 3 3 2 2 2 2 2 2 3 3 4 5 4
4 4 4 3 3 3 2 1 1 1 1 1 1 1 2 2 2 2 2 2 3 3 3 4 3 3 3 3 3 3 2 3 3 2 2 1 2 3 4 4 4 6 6
4 4 3 3 3 2 2 1 1 1 1 1 1 1 2 3 2 1 2 2 3 3 4 3 3 2 2 2 3 4 4 4 3 3 3 2 3 5 6 6 7 8 6
3 3 3 3 3 2 2 1 2 1 1 1 1 1 2 2 2 2 3 2 3 3 3 2 3 2 1 1 2 3 4 4 3 4 4 5 6 6 5 7 8 6 4
2 2 2 2 2 2 2 2 2 1 1 1 2 2 2 3 2 2 2 2 2 2 2 3 3 2 1 1 1 2 3 4 4 4 5 6 7 6 6 5 5 4 4
1 2 1 1 1 1 2 1 1 1 1 2 2 2 3 2 1 1 2 2 1 2 2 3 3 2 2 2 3 3 3 3 3 4 4 4 3 3 3 3 3 3 3
2 1 2 2 2 1 1 2 2 1 2 2 2 2 2 1 1 0 1 2 2 2 2 2 3 2 2 4 3 4 5 5 4 3 4 4 3 3 3 3 3 3 3
Wind_Direction
159 155 158 156 150 146 147 150 151 149 153 152 158 159 162 158 135 137 132 134 131 158 235 324 337 349 105 107 319 339 303 272 239 294 299 260 229 206 185 202 198 177 180
160 161 165 161 155 153 153 153 153 155 165 170 174 169 168 162 142 134 126 130 124 69 343 16 358 328 216 201 286 303 297 300 245 221 298 321 300 267 212 187 210 194 175
167 166 168 167 162 159 161 162 160 158 168 168 173 158 144 172 127 135 136 134 140 159 208 119 117 276 265 260 244 269 307 301 298 230 130 211 249 303 269 226 214 175 199
167 167 170 172 168 161 158 154 152 153 157 160 166 177 171 171 162 161 145 157 182 211 204 156 202 282 276 298 278 33 300 299 301 298 259 197 175 232 284 283 229 222 220
167 167 171 169 165 158 157 151 151 153 157 167 166 177 185 160 143 153 164 186 203 228 203 158 259 277 261 288 299 303 297 289 286 296 291 283 255 238 227 259 262 249 220
162 161 163 156 158 154 152 149 150 155 160 173 179 181 185 174 173 185 178 216 219 219 256 157 289 283 291 289 267 270 270 265 280 285 276 265 263 258 251 261 261 254 245
157 156 158 155 159 159 157 155 154 159 163 171 183 186 189 189 185 200 202 244 241 170 34 1 300 295 296 276 269 268 278 268 270 266 271 271 269 275 272 273 280 280 261
153 151 153 151 157 161 160 159 157 162 164 170 178 181 194 202 189 200 221 247 293 67 109 39 339 300 307 308 321 289 272 287 292 281 281 284 277 274 260 259 274 288 277
149 149 155 157 158 165 166 161 156 162 170 172 172 175 188 209 217 201 219 220 283 255 86 36 348 312 314 305 293 277 289 307 294 284 276 278 279 282 276 265 246 253 271
130 148 156 157 158 162 158 153 151 160 166 168 182 180 187 194 211 202 217 219 195 328 349 306 282 270 261 268 279 276 262 256 254 255 271 286 287 290 286 277 263 241 249
130 135 142 140 152 152 151 153 155 162 168 173 178 185 180 190 199 199 200 236 261 286 308 290 287 273 260 257 263 277 270 263 270 276 270 272 285 291 293 296 285 268 256
116 123 119 117 127 135 141 146 157 165 168 171 175 188 186 189 198 209 207 214 257 267 263 271 279 272 270 276 276 277 281 273 270 276 279 274 277 271 280 285 281 275 274
103 115 118 115 111 112 123 138 154 162 172 174 180 191 198 195 204 218 213 208 226 248 260 261 272 274 276 278 275 278 281 283 285 284 280 277 280 273 273 267 267 270 272
101 99 106 103 103 107 116 129 148 153 166 176 182 186 198 199 209 220 226 220 222 229 249 267 277 277 271 273 287 300 292 287 284 287 280 267 261 262 271 266 265 276 282
99 93 90 95 111 111 119 125 141 148 159 165 176 182 190 189 207 225 244 246 250 247 247 271 281 284 277 292 323 298 289 296 299 299 287 273 262 266 271 275 277 275 270
104 97 97 99 115 125 132 139 155 153 153 160 161 154 169 181 199 232 239 248 258 275 267 268 275 289 299 331 334 309 300 294 287 290 291 274 260 262 260 277 277 273 269
91 96 104 103 109 137 143 157 160 155 160 160 160 156 177 195 221 249 232 251 265 278 274 273 275 267 291 316 302 308 290 281 277 279 282 291 295 275 249 257 257 254 254
90 96 107 100 123 138 143 155 161 161 167 169 180 177 194 208 228 254 250 252 261 260 259 260 264 268 283 302 297 303 276 279 277 276 279 284 284 294 289 269 261 253 258
76 92 121 128 110 114 126 141 158 162 177 186 190 191 215 229 241 254 261 264 259 260 262 257 250 252 267 261 279 303 288 280 287 289 291 283 270 287 295 285 279 271 265
56 52 47 66 87 83 102 151 159 154 171 209 248 239 238 245 253 259 257 263 266 262 265 265 256 243 231 215 228 263 286 286 287 274 264 271 271 287 297 275 278 276 279
63 54 48 57 65 64 80 105 126 166 181 214 239 248 254 253 245 253 252 254 262 269 267 267 258 236 225 210 217 237 272 286 289 281 275 264 244 262 268 263 264 268 283
57 58 55 55 51 49 47 30 25 1 3 312 284 284 285 284 277 256 254 247 248 259 261 261 261 237 214 204 216 231 258 280 289 289 287 292 294 283 270 259 260 270 279
44 55 64 55 37 24 33 13 17 23 7 307 289 289 282 274 275 258 256 258 246 260 271 269 266 264 238 209 219 241 261 275 277 286 296 291 281 284 272 251 252 260 262
40 49 53 50 27 3 11 29 10 360 313 282 273 264 257 258 256 262 270 277 279 285 296 298 288 284 271 289 294 273 276 287 288 300 302 285 269 266 267 268 249 242 250
32 28 39 31 352 10 18 16 359 330 293 283 274 267 265 267 256 282 309 289 298 271 269 290 298 296 292 291 276 269 275 283 293 297 284 275 273 266 261 257 254 244 243
11 2 16 5 344 338 349 344 332 315 285 277 284 285 278 277 266 239 334 350 269 227 223 256 289 301 266 261 260 270 274 275 278 277 276 281 284 287 287 283 271 256 256